Location: Dal�� Lhota
(48.7500°N, 14.0167°E)
Time: 23:15:06
(UTC+00:00)

Transit 2A - Pass Details

Date: 30 July 2021
Orbit: 594 x 964 km, 66.7° (Epoch: 26 September)

Event Time Altitude Azimuth Distance (km) Brightness Sun altitude
Rises 08:06:16 0° 269° (W) 2,892 8.6 42.2°
Reaches altitude 10° 08:09:11 10° 290° (WNW) 2,034 7.9 42.6°
Maximum altitude 08:12:13 17° 332° (NNW) 1,663 7.6 43.1°
Drops below altitude 10° 08:15:26 10° 14° (NNE) 2,165 8.4 43.6°
Sets 08:18:41 0° 34° (NNE) 3,166 9.3 44.1°
